Location: Lewisville
(33.0462°N, 96.9942°W)
Time: 07:27:35
(UTC-06:00)

Envisat - Pass Details

Date: 04 December 2019
Orbit: 764 x 766 km, 98.1° (Epoch: 23 January)

Event Time Altitude Azimuth Distance (km) Brightness Sun altitude
Rises 18:35:36 0° 169° (S) 3,216 6.3 -15.4°
Reaches altitude 10° 18:37:54 10° 170° (S) 2,294 5.5 -15.9°
Maximum altitude 18:42:57 80° 257° (WSW) 780 3.1 -16.9°
Drops below altitude 10° 18:48:03 10° 345° (NNW) 2,308 5.5 -17.9°
Sets 18:50:22 0° 347° (NNW) 3,238 6.2 -18.4°
